This is the latest recevied weather packets stored in our database for station/object KC5DP. If no packets are shown the sender has not sent any weather packets the latest 10 day(s).
| Time | Temp. | Humidity | Pressure | Rain* | Wind** | Luminosity | Snow |
|---|---|---|---|---|---|---|---|
| 1777844492 | 23.89° C | 40% | 1017.5 hPa | 0 mm | - | 46 W/m² | - |
| 1777844186 | 23.89° C | 39% | 1017.5 hPa | 0 mm | - | 51 W/m² | - |
| 1777843882 | 23.89° C | 37% | 1017.9 hPa | 0 mm | - | 49 W/m² | - |
| 1777843579 | 23.89° C | 37% | 1017.7 hPa | 0 mm | - | 408 W/m² | - |
| 1777843277 | 24.44° C | 39% | 1018 hPa | 0 mm | - | 80 W/m² | - |
| 1777842969 | 23.89° C | 40% | 1018 hPa | 0 mm | - | 98 W/m² | - |
| 1777842664 | 23.89° C | 39% | 1018 hPa | 0 mm | - | 80 W/m² | - |
| 1777842360 | 24.44° C | 38% | 1018.4 hPa | 0 mm | - | 81 W/m² | - |
| 1777842056 | 24.44° C | 37% | 1018.4 hPa | 0 mm | - | 98 W/m² | - |
| 1777841111 | 25° C | 36% | 1018.6 hPa | 0 mm | - | 301 W/m² | - |
| 1777840808 | 25° C | 36% | 1018.6 hPa | 0 mm | - | 301 W/m² | - |
| 1777840505 | 25° C | 38% | 1018.8 hPa | 0 mm | - | 314 W/m² | - |
| 1777839760 | 25° C | 37% | 1019 hPa | 0 mm | - | 689 W/m² | - |
| 1777839458 | 25° C | 37% | 1019 hPa | 0 mm | - | 689 W/m² | - |
| 1777839155 | 25° C | 36% | 1019.1 hPa | 0 mm | - | 695 W/m² | - |
| 1777838851 | 25° C | 41% | 1019.1 hPa | 0 mm | - | 715 W/m² | - |
| 1777838548 | 25.56° C | 35% | 1019.5 hPa | 0 mm | - | 616 W/m² | - |
| 1777838245 | 25.56° C | 35% | 1019.5 hPa | 0 mm | - | 616 W/m² | - |
| 1777837942 | 25.56° C | 35% | 1019.5 hPa | 0 mm | - | 616 W/m² | - |
| 1777837639 | 24.44° C | 38% | 1019.7 hPa | 0 mm | - | 759 W/m² | - |
| 1777837335 | 24.44° C | 38% | 1019.7 hPa | 0 mm | - | 759 W/m² | - |
| 1777837031 | 24.44° C | 37% | 1019.7 hPa | 0 mm | - | 752 W/m² | - |
| 1777836727 | 25° C | 37% | 1019.9 hPa | 0 mm | - | 760 W/m² | - |
| 1777836423 | 25° C | 42% | 1019.9 hPa | 0 mm | - | 758 W/m² | - |
| 1777836118 | 24.44° C | 40% | 1020.2 hPa | 0 mm | - | 776 W/m² | - |
* Rain latest hour (hover to see other rain measurements)
** Current wind speed in m/s (hover to see current wind gust speed)